Fergus Falls, MN

3:06 AM CST on November 18, 2019 (GMT -0600)
Fergus Falls Municipal-Mickelson

Weather History for KFFM - September, 2019

Change the Weather History Date:

Saturday, September 28, 2019

  Actual Average Record
Temperature  
Mean Temperature 47 °F -  
Max Temperature 57 °F 64 °F 86 °F (2011)
Min Temperature 37 °F 40 °F 25 °F (1961)
Degree Days  
Heating Degree Days 18    
Moisture  
Dew Point 38 °F    
Average Humidity 67    
Maximum Humidity 93    
Minimum Humidity 47    
Precipitation  
Precipitation 0.00 in - - ()
Sea Level Pressure  
Sea Level Pressure 30.19 in    
Wind  
Wind Speed 4 mph ()    
Max Wind Speed 13 mph    
Max Gust Speed 17 mph    
Visibility 9.9 miles    
Events      
Averages and records for this station are not official NWS values.
T = Trace of Precipitation, MM = Missing Value Source: Averaged Metar Reports

Daily Weather History Graph

Daily Weather History Graph

Search for Another Location

Airport or City:

Astronomy

Sep. 28, 2019 Rise Set
Actual Time 7:19 AM CDT 7:10 PM CDT
Civil Twilight 6:49 AM CDT 7:40 PM CDT
Nautical Twilight 6:14 AM CDT 8:15 PM CDT
Astronomical Twilight 5:38 AM CDT 8:51 PM CDT
Moon 6:52 AM CDT (9/28) 7:39 PM CDT (9/28)
Length of Visible Light 12h 51m
Length of Day
11h 51m
Waning Crescent, 0% of the Moon is Illuminated
Sep 28
Waning Crescent
Sep 28
New
Oct 5
First Quarter
Oct 13
Full
Oct 21
Last Quarter

Hourly Weather History & Observations

Time (CDT) Temp. Windchill Dew Point Humidity Pressure Visibility Wind Dir Wind Speed Gust Speed Precip Events Conditions
12:17 AM 42.8 °F 40.1 °F 35.6 °F 76% 30.03 in 10.0 mi NNE 4.6 mph - N/A   Clear
12:36 AM 42.8 °F - 35.6 °F 76% 30.03 in 10.0 mi Calm Calm - N/A   Clear
12:55 AM 41.0 °F - 35.6 °F 81% 30.03 in 10.0 mi Calm Calm - N/A   Clear
12:56 AM 41.0 °F - 35.6 °F 81% 30.03 in 10.0 mi Calm Calm - N/A   Clear
1:15 AM 41.0 °F - 35.6 °F 81% 30.05 in 10.0 mi Calm Calm - N/A   Clear
1:36 AM 41.0 °F - 35.6 °F 81% 30.06 in 10.0 mi Calm Calm - N/A   Clear
1:56 AM 41.0 °F - 35.6 °F 81% 30.07 in 10.0 mi Calm Calm - N/A   Clear
2:15 AM 41.0 °F - 37.4 °F 87% 30.08 in 10.0 mi Calm Calm - N/A   Clear
2:16 AM 41.0 °F - 37.4 °F 87% 30.08 in 10.0 mi Calm Calm - N/A   Clear
2:35 AM 39.2 °F - 35.6 °F 87% 30.09 in 10.0 mi Calm Calm - N/A   Clear
2:39 AM 39.2 °F 37.0 °F 35.6 °F 87% 30.09 in 10.0 mi ENE 3.5 mph - N/A   Clear
2:57 AM 39.2 °F - 35.6 °F 87% 30.10 in 10.0 mi Calm Calm - N/A   Clear
3:16 AM 39.2 °F 37.0 °F 35.6 °F 87% 30.10 in 10.0 mi NE 3.5 mph - N/A   Clear
3:35 AM 39.2 °F 37.0 °F 35.6 °F 87% 30.10 in 10.0 mi ENE 3.5 mph - N/A   Clear
3:36 AM 39.2 °F 35.9 °F 35.6 °F 87% 30.10 in 10.0 mi ENE 4.6 mph - N/A   Clear
3:55 AM 39.2 °F 37.0 °F 35.6 °F 87% 30.11 in 10.0 mi East 3.5 mph - N/A   Clear
3:56 AM 39.2 °F 37.0 °F 35.6 °F 87% 30.11 in 10.0 mi ENE 3.5 mph - N/A   Clear
4:19 AM 39.2 °F 35.9 °F 37.4 °F 93% 30.13 in 10.0 mi ENE 4.6 mph - N/A   Clear
4:36 AM 39.2 °F 35.9 °F 35.6 °F 87% 30.13 in 10.0 mi ENE 4.6 mph - N/A   Clear
4:56 AM 39.2 °F 37.0 °F 35.6 °F 87% 30.14 in 10.0 mi NE 3.5 mph - N/A   Clear
5:15 AM 39.2 °F 35.0 °F 35.6 °F 87% 30.14 in 10.0 mi ENE 5.8 mph - N/A   Clear
5:35 AM 39.2 °F 35.9 °F 35.6 °F 87% 30.16 in 10.0 mi ENE 4.6 mph - N/A   Clear
5:57 AM 39.2 °F 35.0 °F 35.6 °F 87% 30.17 in 10.0 mi ENE 5.8 mph - N/A   Clear
6:16 AM 39.2 °F 35.9 °F 35.6 °F 87% 30.17 in 10.0 mi ENE 4.6 mph - N/A   Clear
6:35 AM 39.2 °F 35.9 °F 35.6 °F 87% 30.17 in 10.0 mi ENE 4.6 mph - N/A   Clear
6:36 AM 39.2 °F 35.9 °F 35.6 °F 87% 30.17 in 10.0 mi ENE 4.6 mph - N/A   Clear
6:55 AM 39.2 °F 37.0 °F 37.4 °F 93% 30.18 in 10.0 mi East 3.5 mph - N/A   Clear
7:18 AM 37.4 °F 33.8 °F 35.6 °F 93% 30.19 in 10.0 mi NE 4.6 mph - N/A   Clear
7:37 AM 37.4 °F 33.8 °F 35.6 °F 93% 30.20 in 10.0 mi ENE 4.6 mph - N/A   Clear
7:56 AM 39.2 °F 35.9 °F 37.4 °F 93% 30.21 in 10.0 mi ENE 4.6 mph - N/A   Clear
8:15 AM 39.2 °F 37.0 °F 37.4 °F 93% 30.23 in 10.0 mi NE 3.5 mph - N/A   Clear
8:16 AM 39.2 °F 37.0 °F 37.4 °F 93% 30.23 in 10.0 mi NE 3.5 mph - N/A   Clear
8:35 AM 42.8 °F - 39.2 °F 87% 30.23 in 10.0 mi Calm Calm - N/A   Clear
8:57 AM 44.6 °F 43.1 °F 39.2 °F 81% 30.25 in 10.0 mi ENE 3.5 mph - N/A   Clear
9:15 AM 46.4 °F - 42.8 °F 87% 30.25 in 10.0 mi Calm Calm - N/A   Clear
9:35 AM 48.2 °F - 41.0 °F 76% 30.25 in 10.0 mi Calm Calm - N/A   Clear
9:36 AM 48.2 °F - 41.0 °F 76% 30.25 in 10.0 mi East 3.5 mph - N/A   Clear
9:55 AM 50.0 °F - 39.2 °F 66% 30.26 in 10.0 mi ESE 3.5 mph - N/A   Clear
9:56 AM 50.0 °F - 39.2 °F 66% 30.26 in 10.0 mi ESE 3.5 mph - N/A   Clear
10:18 AM 51.8 °F - 39.2 °F 62% 30.25 in 10.0 mi ESE 3.5 mph - N/A   Clear
10:36 AM 51.8 °F - 37.4 °F 58% 30.25 in 10.0 mi ESE 4.6 mph - N/A   Clear
10:55 AM 53.6 °F - 37.4 °F 54% 30.25 in 10.0 mi ENE 3.5 mph - N/A   Clear
10:56 AM 53.6 °F - 37.4 °F 54% 30.25 in 10.0 mi Calm Calm - N/A   Clear
11:15 AM 53.6 °F - 37.4 °F 54% 30.25 in 10.0 mi ESE 5.8 mph - N/A   Clear
11:16 AM 53.6 °F - 37.4 °F 54% 30.25 in 10.0 mi ESE 4.6 mph - N/A   Clear
11:35 AM 53.6 °F - 37.4 °F 54% 30.26 in 10.0 mi East 5.8 mph - N/A   Clear
11:39 AM 53.6 °F - 37.4 °F 54% 30.26 in 10.0 mi NE 5.8 mph - N/A   Clear
11:57 AM 55.4 °F - 37.4 °F 51% 30.25 in 10.0 mi ENE 6.9 mph - N/A   Clear
12:16 PM 55.4 °F - 37.4 °F 51% 30.25 in 10.0 mi ENE 8.1 mph - N/A   Clear
12:35 PM 55.4 °F - 37.4 °F 51% 30.25 in 10.0 mi East 5.8 mph - N/A   Clear
12:36 PM 55.4 °F - 37.4 °F 51% 30.25 in 10.0 mi East 4.6 mph - N/A   Clear
12:55 PM 55.4 °F - 35.6 °F 47% 30.25 in 10.0 mi ESE 6.9 mph 17.3 mph N/A   Clear
12:56 PM 55.4 °F - 35.6 °F 47% 30.25 in 10.0 mi East 5.8 mph 17.3 mph N/A   Clear
1:19 PM 55.4 °F - 35.6 °F 47% 30.26 in 10.0 mi ESE 4.6 mph - N/A   Clear
1:36 PM 55.4 °F - 37.4 °F 51% 30.25 in 10.0 mi ESE 4.6 mph - N/A   Clear
1:56 PM 57.2 °F - 37.4 °F 48% 30.25 in 10.0 mi SSE 8.1 mph - N/A   Scattered Clouds
2:15 PM 57.2 °F - 37.4 °F 48% 30.25 in 10.0 mi Calm Calm - N/A   Mostly Cloudy
2:16 PM 57.2 °F - 37.4 °F 48% 30.25 in 10.0 mi ESE 3.5 mph - N/A   Mostly Cloudy
2:35 PM 55.4 °F - 37.4 °F 51% 30.24 in 10.0 mi ENE 6.9 mph - N/A   Scattered Clouds
2:57 PM 55.4 °F - 37.4 °F 51% 30.24 in 10.0 mi East 8.1 mph - N/A   Clear
3:35 PM 55.4 °F - 37.4 °F 51% 30.24 in 10.0 mi ESE 6.9 mph - N/A   Clear
3:36 PM 55.4 °F - 37.4 °F 51% 30.24 in 10.0 mi ESE 5.8 mph - N/A   Clear
3:55 PM 55.4 °F - 37.4 °F 51% 30.23 in 7.0 mi East 5.8 mph - N/A   Clear
3:56 PM 55.4 °F - 37.4 °F 51% 30.23 in 5.0 mi East 4.6 mph - N/A   Haze
4:18 PM 55.4 °F - 37.4 °F 51% 30.22 in 10.0 mi East 6.9 mph - N/A   Clear
4:37 PM 55.4 °F - 37.4 °F 51% 30.22 in 10.0 mi East 4.6 mph - N/A   Clear
4:56 PM 55.4 °F - 37.4 °F 51% 30.23 in 10.0 mi East 3.5 mph - N/A   Clear
5:15 PM 55.4 °F - 37.4 °F 51% 30.23 in 10.0 mi East 4.6 mph - N/A   Clear
5:16 PM 55.4 °F - 37.4 °F 51% 30.23 in 10.0 mi East 4.6 mph - N/A   Clear
5:35 PM 55.4 °F - 37.4 °F 51% 30.22 in 10.0 mi ENE 5.8 mph - N/A   Clear
5:57 PM 55.4 °F - 39.2 °F 54% 30.21 in 10.0 mi East 5.8 mph - N/A   Clear
6:16 PM 53.6 °F - 39.2 °F 58% 30.21 in 10.0 mi East 4.6 mph - N/A   Clear
6:35 PM 53.6 °F - 39.2 °F 58% 30.20 in 10.0 mi ENE 6.9 mph - N/A   Scattered Clouds
6:36 PM 53.6 °F - 39.2 °F 58% 30.20 in 10.0 mi ENE 5.8 mph - N/A   Scattered Clouds
6:56 PM 53.6 °F - 39.2 °F 58% 30.20 in 10.0 mi ESE 6.9 mph - N/A   Scattered Clouds
7:19 PM 53.6 °F - 39.2 °F 58% 30.20 in 10.0 mi ESE 6.9 mph - N/A   Scattered Clouds
7:36 PM 53.6 °F - 39.2 °F 58% 30.20 in 10.0 mi ESE 6.9 mph - N/A   Scattered Clouds
7:56 PM 53.6 °F - 39.2 °F 58% 30.20 in 10.0 mi East 6.9 mph - N/A   Mostly Cloudy
8:16 PM 53.6 °F - 39.2 °F 58% 30.21 in 10.0 mi ESE 6.9 mph - N/A   Overcast
8:35 PM 53.6 °F - 39.2 °F 58% 30.21 in 10.0 mi East 4.6 mph - N/A   Overcast
8:40 PM 53.6 °F - 39.2 °F 58% 30.21 in 10.0 mi East 3.5 mph - N/A   Overcast
8:57 PM 53.6 °F - 39.2 °F 58% 30.21 in 10.0 mi East 6.9 mph - N/A   Overcast
9:16 PM 53.6 °F - 39.2 °F 58% 30.20 in 10.0 mi East 9.2 mph - N/A   Overcast
9:35 PM 51.8 °F - 39.2 °F 62% 30.20 in 10.0 mi East 6.9 mph - N/A   Overcast
9:36 PM 51.8 °F - 39.2 °F 62% 30.20 in 10.0 mi East 8.1 mph - N/A   Overcast
9:55 PM 51.8 °F - 37.4 °F 58% 30.20 in 10.0 mi East 8.1 mph - N/A   Overcast
9:56 PM 51.8 °F - 37.4 °F 58% 30.20 in 10.0 mi East 9.2 mph - N/A   Overcast
10:19 PM 53.6 °F - 39.2 °F 58% 30.21 in 10.0 mi East 9.2 mph - N/A   Overcast
10:36 PM 51.8 °F - 39.2 °F 62% 30.20 in 10.0 mi East 9.2 mph - N/A   Overcast
10:56 PM 51.8 °F - 39.2 °F 62% 30.21 in 10.0 mi ESE 9.2 mph - N/A   Overcast
11:15 PM 51.8 °F - 39.2 °F 62% 30.20 in 10.0 mi East 12.7 mph - N/A   Overcast
11:35 PM 51.8 °F - 39.2 °F 62% 30.20 in 10.0 mi East 9.2 mph - N/A   Overcast
11:40 PM 53.6 °F - 39.2 °F 58% 30.20 in 10.0 mi East 9.2 mph - N/A   Overcast
11:57 PM 51.8 °F - 39.2 °F 62% 30.21 in 10.0 mi East 9.2 mph - N/A   Overcast